Saint Paul, MN

6:48 PM CST on January 17, 2017 (GMT -0600)
Saint Paul Downtown-Holman

Weather History for KSTP - January, 2013

Change the Weather History Date:

Thursday, January 24, 2013

  Actual Average Record
Temperature  
Mean Temperature 3 °F -  
Max Temperature 12 °F 22 °F 41 °F (2015)
Min Temperature -6 °F 7 °F -11 °F (2008)
Degree Days  
Heating Degree Days 62    
Moisture  
Dew Point -10 °F    
Average Humidity 58    
Maximum Humidity 62    
Minimum Humidity 53    
Precipitation  
Precipitation 0.00 in - - ()
Sea Level Pressure  
Sea Level Pressure 30.57 in    
Wind  
Wind Speed 7 mph (ESE)    
Max Wind Speed 14 mph    
Max Gust Speed 21 mph    
Visibility 10 miles    
Events Snow    
Averages and records for this station are not official NWS values.
T = Trace of Precipitation, MM = Missing Value Source: NWS Daily Summary

Daily Weather History Graph

Daily Weather History Graph

Search for Another Location

Airport or City:

Trip Planner

Search our weather history database for the weather conditions in past years. The results will help you decide how hot, cold, wet, or windy it might be!

Date:

Astronomy

Jan. 24, 2013 Rise Set
Actual Time 7:39 AM CST 5:09 PM CST
Civil Twilight 7:07 AM CST 5:41 PM CST
Nautical Twilight 6:32 AM CST 6:17 PM CST
Astronomical Twilight 5:57 AM CST 6:51 PM CST
Moon 3:10 PM CST (1/24) 5:39 AM CST (1/24)
Length of Visible Light 10h 33m
Length of Day
9h 29m
Waxing Gibbous, 94% of the Moon is Illuminated
Jan 24
Waxing Gibbous
Jan 26
Full
Feb 3
Last Quarter
Feb 10
New
Feb 17
First Quarter

Hourly Weather History & Observations

Time (CST) Temp. Windchill Dew Point Humidity Pressure Visibility Wind Dir Wind Speed Gust Speed Precip Events Conditions
12:53 AM -5.1 °F -22.5 °F -18.0 °F 54% 30.69 in 10.0 mi North 10.4 mph - N/A   Clear
1:53 AM -6.0 °F -20.1 °F -18.0 °F 56% 30.70 in 10.0 mi North 6.9 mph - N/A   Clear
2:53 AM -6.0 °F -18.6 °F -18.0 °F 56% 30.72 in 10.0 mi North 5.8 mph - N/A   Clear
3:53 AM -6.0 °F -20.1 °F -18.0 °F 56% 30.74 in 10.0 mi NNW 6.9 mph - N/A   Clear
4:53 AM -6.0 °F -18.6 °F -17.0 °F 59% 30.72 in 10.0 mi North 5.8 mph - N/A   Clear
5:53 AM -6.0 °F -14.7 °F -17.0 °F 59% 30.72 in 10.0 mi East 3.5 mph - N/A   Clear
6:53 AM -5.1 °F - -16.1 °F 59% 30.76 in 10.0 mi Calm Calm - N/A   Clear
7:53 AM -4.0 °F - -15.0 °F 59% 30.75 in 10.0 mi Calm Calm - N/A   Clear
8:53 AM -4.0 °F -12.4 °F -14.1 °F 62% 30.72 in 10.0 mi East 3.5 mph - N/A   Clear
9:53 AM -2.9 °F -16.5 °F -13.0 °F 62% 30.70 in 10.0 mi ESE 6.9 mph - N/A   Clear
10:53 AM -0.9 °F -12.7 °F -11.9 °F 60% 30.71 in 10.0 mi ESE 5.8 mph - N/A   Partly Cloudy
11:53 AM 1.9 °F -9.2 °F -9.9 °F 58% 30.67 in 10.0 mi SE 5.8 mph - N/A   Clear
12:53 PM 3.9 °F -9.4 °F -8.0 °F 58% 30.62 in 10.0 mi SSE 8.1 mph - N/A   Scattered Clouds
1:53 PM 5.0 °F -6.9 °F -8.0 °F 55% 30.59 in 10.0 mi SE 6.9 mph - N/A   Scattered Clouds
2:53 PM 6.1 °F -6.8 °F -6.0 °F 58% 30.53 in 10.0 mi ESE 8.1 mph - N/A   Overcast
3:53 PM 8.1 °F -7.0 °F -6.0 °F 53% 30.49 in 10.0 mi SE 11.5 mph - N/A   Overcast
4:53 PM 8.1 °F -5.3 °F -4.0 °F 58% 30.46 in 10.0 mi SE 9.2 mph - N/A   Overcast
5:53 PM 9.0 °F -6.6 °F -4.0 °F 56% 30.43 in 10.0 mi ESE 12.7 mph - N/A   Clear
6:53 PM 9.0 °F -7.3 °F -4.0 °F 56% 30.39 in 10.0 mi SE 13.8 mph - N/A   Clear
7:53 PM 10.0 °F -4.5 °F -2.0 °F 58% 30.33 in 10.0 mi SE 11.5 mph - N/A   Overcast
8:53 PM 10.0 °F -3.7 °F -2.0 °F 58% 30.31 in 10.0 mi SE 10.4 mph - N/A   Overcast
9:53 PM 10.9 °F -3.4 °F -0.9 °F 59% 30.28 in 10.0 mi SE 11.5 mph 20.7 mph N/A   Overcast
10:53 PM 12.0 °F 1.5 °F -0.0 °F 59% 30.28 in 10.0 mi SSE 6.9 mph - N/A   Overcast
11:53 PM 12.9 °F 2.6 °F 1.9 °F 62% 30.25 in 8.0 mi SE 6.9 mph - 0.00 in Snow Light Snow